Overview Statistics Trail Chart Weather Telemetry Raw packets
 

This is the latest recevied weather packets stored in our database for station/object SV9FBP-13. If no packets are shown the sender has not sent any weather packets the latest 10 day(s).

<< 17 18 19 20 21 22 23 >>
Time Temp. Humidity Pressure Rain* Wind** Luminosity Snow
1788250807 32.22° C 37% 1009.6 hPa 0.25 mm - - -
1788249905 32.22° C 40% 1009.6 hPa 0 mm - - -
1788249003 31.67° C 40% 1009.4 hPa 0 mm - - -
1788248101 31.11° C 41% 1009.5 hPa 0 mm - - -
1788247199 30.56° C 43% 1009.4 hPa 0 mm - - -
1788246297 30° C 45% 1009.3 hPa 0 mm - - -
1788245395 29.44° C 45% 1009.3 hPa 0 mm - - -
1788244492 29.44° C 46% 1009.2 hPa 0 mm - - -
1788243590 29.44° C 48% 1009 hPa 0 mm - - -
1788242688 28.89° C 49% 1009.1 hPa 0 mm - - -
1788241785 28.89° C 48% 1009 hPa 0 mm - - -
1788240884 28.33° C 48% 1009.2 hPa 0 mm - - -
1788239981 28.33° C 50% 1009.1 hPa 0 mm - - -
1788239079 27.78° C 50% 1009.1 hPa 0 mm - - -
1788238177 27.78° C 52% 1009.1 hPa 0 mm - - -
1788237276 27.22° C 58% 1008.9 hPa 0 mm - - -
1788236373 26.67° C 58% 1008.7 hPa 0 mm - - -
1788235471 26.11° C 60% 1008.6 hPa 0 mm - - -
1788234568 26.11° C 61% 1008.7 hPa 0 mm - - -
1788233666 26.11° C 61% 1008.5 hPa 0 mm - - -
1788232774 26.11° C 58% 1008.5 hPa 0 mm - - -
1788231865 26.67° C 56% 1008.6 hPa 0 mm - - -
1788230961 26.67° C 53% 1008.4 hPa 0 mm - - -
1788230058 26.67° C 54% 1008.9 hPa 0 mm - - -
1788229156 26.67° C 53% 1008.6 hPa 0 mm - - -

* Rain latest hour (hover to see other rain measurements)
** Current wind speed in m/s (hover to see current wind gust speed)